This is the latest recevied weather packets stored in our database for station/object KD2SIG. If no packets are shown the sender has not sent any weather packets the latest 10 day(s).
| Time | Temp. | Humidity | Pressure | Rain* | Wind** | Luminosity | Snow |
|---|---|---|---|---|---|---|---|
| 1777671751 | 9.44° C | 49% | 1012.1 hPa | 0 mm | - | 74 W/m² | - |
| 1777671447 | 9.44° C | 49% | 1012.1 hPa | 0 mm | - | 78 W/m² | - |
| 1777671144 | 9.44° C | 49% | 1012 hPa | 0 mm | - | 73 W/m² | - |
| 1777670840 | 10° C | 49% | 1011.9 hPa | 0 mm | - | 85 W/m² | - |
| 1777670536 | 10° C | 50% | 1011.9 hPa | 0 mm | - | 108 W/m² | - |
| 1777670233 | 10° C | 50% | 1011.8 hPa | 0 mm | - | 108 W/m² | - |
| 1777669930 | 10° C | 49% | 1012.1 hPa | 0 mm | - | 87 W/m² | - |
| 1777669628 | 10° C | 48% | 1011.8 hPa | 0 mm | - | 112 W/m² | - |
| 1777669324 | 10.56° C | 48% | 1012 hPa | 0 mm | - | 152 W/m² | - |
| 1777669020 | 10.56° C | 46% | 1012 hPa | 0 mm | - | 159 W/m² | - |
| 1777668717 | 10.56° C | 46% | 1012 hPa | 0 mm | - | 185 W/m² | - |
| 1777668414 | 10.56° C | 47% | 1011.9 hPa | 0 mm | - | 168 W/m² | - |
| 1777668110 | 10.56° C | 46% | 1011.9 hPa | 0 mm | - | 185 W/m² | - |
| 1777667807 | 10.56° C | 46% | 1012 hPa | 0 mm | - | 195 W/m² | - |
| 1777667505 | 10.56° C | 45% | 1011.9 hPa | 0 mm | - | 210 W/m² | - |
| 1777667201 | 11.11° C | 47% | 1012.2 hPa | 0 mm | - | 210 W/m² | - |
| 1777666898 | 11.11° C | 44% | 1012.1 hPa | 0 mm | - | 235 W/m² | - |
| 1777666595 | 11.11° C | 47% | 1012 hPa | 0 mm | - | 271 W/m² | - |
| 1777666292 | 11.11° C | 45% | 1012 hPa | 0 mm | - | 311 W/m² | - |
| 1777665989 | 12.22° C | 44% | 1012 hPa | 0 mm | - | 396 W/m² | - |
| 1777665686 | 12.22° C | 41% | 1011.8 hPa | 0 mm | - | 639 W/m² | - |
| 1777665384 | 12.22° C | 43% | 1012.2 hPa | 0 mm | - | 643 W/m² | - |
| 1777665079 | 12.22° C | 45% | 1012 hPa | 0 mm | - | 637 W/m² | - |
| 1777664775 | 11.67° C | 44% | 1011.9 hPa | 0 mm | - | 497 W/m² | - |
| 1777664471 | 11.67° C | 47% | 1012.3 hPa | 0 mm | - | 459 W/m² | - |
* Rain latest hour (hover to see other rain measurements)
** Current wind speed in m/s (hover to see current wind gust speed)